Time,TemperatureF,DewpointF,PressureIn,WindDirection,WindDirectionDegrees,WindSpeedMPH,WindSpeedGustMPH,Humidity,HourlyPrecipIn,Conditions,Clouds,dailyrainin,SoftwareType,DateUTC
2013-04-20 00:03:00,41.6,27.9,30.13,NNE,18,2.0,7.0,58,0.00,CLR,SKC,0.00,WeatherDisplay:10.37,2013-04-20 05:03:00,
2013-04-20 00:08:00,41.4,27.8,30.13,NNE,18,1.0,5.0,58,0.00,CLR,SKC,0.00,WeatherDisplay:10.37,2013-04-20 05:08:00,
2013-04-20 00:13:00,41.5,27.8,30.13,NNE,18,5.0,5.0,58,0.00,CLR,SKC,0.00,WeatherDisplay:10.37,2013-04-20 05:13:00,
2013-04-20 00:18:00,41.5,27.4,30.13,NNE,22,0.0,7.0,57,0.00,CLR,SKC,0.00,WeatherDisplay:10.37,2013-04-20 05:18:00,
2013-04-20 00:23:00,41.3,27.2,30.13,NNE,23,1.0,3.0,57,0.00,CLR,SKC,0.00,WeatherDisplay:10.37,2013-04-20 05:23:00,
2013-04-20 00:28:00,41.1,27.0,30.13,NNE,15,2.0,7.0,57,0.00,CLR,SKC,0.00,WeatherDisplay:10.37,2013-04-20 05:28:00,
2013-04-20 00:33:00,41.2,27.1,30.13,North,1,5.0,8.0,57,0.00,CLR,SKC,0.00,WeatherDisplay:10.37,2013-04-20 05:33:00,
2013-04-20 00:38:00,41.1,26.6,30.14,NNE,13,1.0,5.0,56,0.00,CLR,SKC,0.00,WeatherDisplay:10.37,2013-04-20 05:38:00,
2013-04-20 00:48:00,41.0,26.5,30.14,NNE,14,1.0,3.0,56,0.00,CLR,SKC,0.00,WeatherDisplay:10.37,2013-04-20 05:48:00,
2013-04-20 00:53:00,40.7,26.2,30.14,NNE,24,0.0,2.0,56,0.00,CLR,SKC,0.00,WeatherDisplay:10.37,2013-04-20 05:53:00,
2013-04-20 00:58:00,40.3,25.8,30.14,NNE,24,0.0,1.0,56,0.00,CLR,SKC,0.00,WeatherDisplay:10.37,2013-04-20 05:58:00,
2013-04-20 01:03:00,39.9,25.9,30.14,NNE,24,0.0,2.0,57,0.00,CLR,SKC,0.00,WeatherDisplay:10.37,2013-04-20 06:03:00,
2013-04-20 01:08:00,39.8,26.2,30.14,NNE,24,1.0,3.0,58,0.00,CLR,SKC,0.00,WeatherDisplay:10.37,2013-04-20 06:08:00,
2013-04-20 01:13:00,39.8,26.2,30.14,NNE,23,1.0,3.0,58,0.00,CLR,SKC,0.00,WeatherDisplay:10.37,2013-04-20 06:13:00,
2013-04-20 01:18:00,39.7,26.2,30.15,NNE,15,1.0,3.0,58,0.00,CLR,SKC,0.00,WeatherDisplay:10.37,2013-04-20 06:18:00,
2013-04-20 01:23:00,39.6,26.0,30.15,North,10,0.0,3.0,58,0.00,CLR,SKC,0.00,WeatherDisplay:10.37,2013-04-20 06:23:00,
2013-04-20 01:28:00,39.4,25.9,30.15,North,8,0.0,2.0,58,0.00,CLR,SKC,0.00,WeatherDisplay:10.37,2013-04-20 06:28:00,
2013-04-20 01:33:00,39.2,25.7,30.15,North,9,0.0,2.0,58,0.00,CLR,SKC,0.00,WeatherDisplay:10.37,2013-04-20 06:33:00,
2013-04-20 01:38:00,39.1,25.9,30.15,North,1,0.0,2.0,59,0.00,CLR,SKC,0.00,WeatherDisplay:10.37,2013-04-20 06:38:00,
2013-04-20 01:43:00,38.8,25.7,30.15,North,356,0.0,0.0,59,0.00,CLR,SKC,0.00,WeatherDisplay:10.37,2013-04-20 06:43:00,
2013-04-20 01:48:00,38.5,25.8,30.15,North,359,1.0,2.0,60,0.00,CLR,SKC,0.00,WeatherDisplay:10.37,2013-04-20 06:48:00,
2013-04-20 01:53:00,38.4,25.8,30.15,North,6,0.0,2.0,60,0.00,CLR,SKC,0.00,WeatherDisplay:10.37,2013-04-20 06:53:00,
2013-04-20 01:58:00,38.2,25.9,30.15,North,10,0.0,3.0,61,0.00,CLR,SKC,0.00,WeatherDisplay:10.37,2013-04-20 06:58:00,
2013-04-20 02:03:00,38.2,25.9,30.15,NNE,15,1.0,3.0,61,0.00,CLR,SKC,0.00,WeatherDisplay:10.37,2013-04-20 07:03:00,
2013-04-20 02:08:00,38.3,26.0,30.15,NNE,20,0.0,2.0,61,0.00,CLR,SKC,0.00,WeatherDisplay:10.37,2013-04-20 07:08:00,
2013-04-20 02:13:00,38.0,25.7,30.16,NNE,20,0.0,0.0,61,0.00,CLR,SKC,0.00,WeatherDisplay:10.37,2013-04-20 07:13:00,
2013-04-20 02:18:00,37.3,25.5,30.16,NNE,20,0.0,0.0,62,0.00,CLR,SKC,0.00,WeatherDisplay:10.37,2013-04-20 07:18:00,
2013-04-20 02:23:00,36.9,25.8,30.16,NNE,20,0.0,0.0,64,0.00,CLR,SKC,0.00,WeatherDisplay:10.37,2013-04-20 07:23:00,
2013-04-20 02:28:00,36.4,25.3,30.16,NNE,20,0.0,0.0,64,0.00,CLR,SKC,0.00,WeatherDisplay:10.37,2013-04-20 07:28:00,
2013-04-20 02:33:00,36.1,25.5,30.16,NNE,20,0.0,0.0,65,0.00,CLR,SKC,0.00,WeatherDisplay:10.37,2013-04-20 07:33:00,
2013-04-20 02:38:00,36.4,25.8,30.16,NNE,20,0.0,2.0,65,0.00,CLR,SKC,0.00,WeatherDisplay:10.37,2013-04-20 07:38:00,
2013-04-20 02:43:00,36.5,25.9,30.16,NNE,20,0.0,0.0,65,0.00,CLR,SKC,0.00,WeatherDisplay:10.37,2013-04-20 07:43:00,
2013-04-20 02:48:00,36.6,25.6,30.16,NNE,20,0.0,0.0,64,0.00,CLR,SKC,0.00,WeatherDisplay:10.37,2013-04-20 07:48:00,
2013-04-20 02:53:00,36.5,25.1,30.16,NNE,20,0.0,0.0,63,0.00,CLR,SKC,0.00,WeatherDisplay:10.37,2013-04-20 07:53:00,
2013-04-20 02:58:00,35.8,25.5,30.15,NNE,20,0.0,0.0,66,0.00,CLR,SKC,0.00,WeatherDisplay:10.37,2013-04-20 07:58:00,
2013-04-20 03:03:00,35.1,26.0,30.15,NNE,20,0.0,0.0,69,0.00,CLR,SKC,0.00,WeatherDisplay:10.37,2013-04-20 08:03:00,
2013-04-20 03:08:00,35.0,25.8,30.15,NNE,20,0.0,2.0,69,0.00,CLR,SKC,0.00,WeatherDisplay:10.37,2013-04-20 08:08:00,
2013-04-20 03:13:00,35.8,25.9,30.15,NNE,20,1.0,2.0,67,0.00,CLR,SKC,0.00,WeatherDisplay:10.37,2013-04-20 08:13:00,
2013-04-20 03:18:00,36.2,26.0,30.15,NNE,28,3.0,5.0,66,0.00,CLR,SKC,0.00,WeatherDisplay:10.37,2013-04-20 08:18:00,
2013-04-20 03:28:00,36.7,25.7,30.15,NE,38,6.0,8.0,64,0.00,CLR,SKC,0.00,WeatherDisplay:10.37,2013-04-20 08:28:00,
2013-04-20 03:38:00,36.8,25.8,30.15,NNE,30,0.0,2.0,64,0.00,CLR,SKC,0.00,WeatherDisplay:10.37,2013-04-20 08:38:00,
2013-04-20 03:43:00,36.8,25.4,30.15,NNE,30,0.0,2.0,63,0.00,CLR,SKC,0.00,WeatherDisplay:10.37,2013-04-20 08:43:00,
2013-04-20 03:48:00,36.8,25.4,30.16,NE,34,0.0,2.0,63,0.00,CLR,SKC,0.00,WeatherDisplay:10.37,2013-04-20 08:48:00,
2013-04-20 03:53:00,36.5,25.5,30.16,NE,34,0.0,0.0,64,0.00,CLR,SKC,0.00,WeatherDisplay:10.37,2013-04-20 08:53:00,
2013-04-20 03:58:00,36.1,25.4,30.17,NE,35,0.0,2.0,65,0.00,CLR,SKC,0.00,WeatherDisplay:10.37,2013-04-20 08:58:00,
2013-04-20 04:03:00,35.7,25.1,30.17,NE,36,0.0,2.0,65,0.00,CLR,SKC,0.00,WeatherDisplay:10.37,2013-04-20 09:03:00,
2013-04-20 04:08:00,35.2,25.3,30.17,NE,36,0.0,0.0,67,0.00,CLR,SKC,0.00,WeatherDisplay:10.37,2013-04-20 09:08:00,
2013-04-20 04:13:00,34.4,25.6,30.17,NE,36,0.0,0.0,70,0.00,CLR,SKC,0.00,WeatherDisplay:10.37,2013-04-20 09:13:00,
2013-04-20 04:18:00,33.6,25.5,30.17,NE,36,0.0,0.0,72,0.00,CLR,SKC,0.00,WeatherDisplay:10.37,2013-04-20 09:18:00,
2013-04-20 04:23:00,33.6,25.2,30.18,NE,36,0.0,0.0,71,0.00,CLR,SKC,0.00,WeatherDisplay:10.37,2013-04-20 09:23:00,
2013-04-20 04:28:00,33.8,25.1,30.18,NE,36,0.0,0.0,70,0.00,CLR,SKC,0.00,WeatherDisplay:10.37,2013-04-20 09:28:00,
2013-04-20 04:33:00,33.5,24.8,30.18,NE,36,0.0,0.0,70,0.00,CLR,SKC,0.00,WeatherDisplay:10.37,2013-04-20 09:33:00,
2013-04-20 04:38:00,32.9,25.1,30.18,NE,36,0.0,0.0,73,0.00,CLR,SKC,0.00,WeatherDisplay:10.37,2013-04-20 09:38:00,
2013-04-20 04:48:00,31.7,25.0,30.18,NE,36,0.0,0.0,76,0.00,CLR,SKC,0.00,WeatherDisplay:10.37,2013-04-20 09:48:00,
2013-04-20 04:53:00,31.5,25.1,30.19,NE,36,0.0,0.0,77,0.00,CLR,SKC,0.00,WeatherDisplay:10.37,2013-04-20 09:53:00,
2013-04-20 04:58:00,31.1,24.8,30.19,NE,36,0.0,0.0,77,0.00,CLR,SKC,0.00,WeatherDisplay:10.37,2013-04-20 09:58:00,
2013-04-20 05:03:00,30.8,25.1,30.19,NE,36,0.0,0.0,79,0.00,CLR,SKC,0.00,WeatherDisplay:10.37,2013-04-20 10:03:00,
2013-04-20 05:08:00,30.9,25.8,30.19,NE,36,0.0,0.0,81,0.00,CLR,SKC,0.00,WeatherDisplay:10.37,2013-04-20 10:08:00,
2013-04-20 05:13:00,30.9,25.8,30.19,NE,36,0.0,0.0,81,0.00,CLR,SKC,0.00,WeatherDisplay:10.37,2013-04-20 10:13:00,
2013-04-20 05:18:00,31.2,25.8,30.19,NE,36,0.0,2.0,80,0.00,CLR,SKC,0.00,WeatherDisplay:10.37,2013-04-20 10:18:00,
2013-04-20 05:23:00,31.0,25.9,30.18,NE,36,0.0,1.0,81,0.00,CLR,SKC,0.00,WeatherDisplay:10.37,2013-04-20 10:23:00,
2013-04-20 05:28:00,30.7,25.8,30.18,NE,36,0.0,0.0,82,0.00,CLR,SKC,0.00,WeatherDisplay:10.37,2013-04-20 10:28:00,
2013-04-20 05:33:00,30.7,25.6,30.18,NE,36,0.0,0.0,81,0.00,CLR,SKC,0.00,WeatherDisplay:10.37,2013-04-20 10:33:00,
2013-04-20 05:38:00,31.1,26.0,30.18,NE,36,0.0,0.0,81,0.00,CLR,SKC,0.00,WeatherDisplay:10.37,2013-04-20 10:38:00,
2013-04-20 05:43:00,30.9,25.5,30.19,NE,36,0.0,0.0,80,0.00,CLR,SKC,0.00,WeatherDisplay:10.37,2013-04-20 10:43:00,
2013-04-20 05:48:00,31.1,25.4,30.19,NE,36,0.0,0.0,79,0.00,CLR,SKC,0.00,WeatherDisplay:10.37,2013-04-20 10:48:00,
2013-04-20 05:53:00,31.0,25.3,30.19,NE,36,0.0,0.0,79,0.00,CLR,SKC,0.00,WeatherDisplay:10.37,2013-04-20 10:53:00,
2013-04-20 05:58:00,31.0,25.6,30.20,NE,36,0.0,0.0,80,0.00,CLR,SKC,0.00,WeatherDisplay:10.37,2013-04-20 10:58:00,
2013-04-20 06:03:00,31.1,25.4,30.20,NE,36,0.0,0.0,79,0.00,CLR,SKC,0.00,WeatherDisplay:10.37,2013-04-20 11:03:00,
2013-04-20 06:08:00,30.8,25.1,30.20,NE,36,0.0,0.0,79,0.00,CLR,SKC,0.00,WeatherDisplay:10.37,2013-04-20 11:08:00,
2013-04-20 06:13:00,30.5,25.4,30.20,NE,42,0.0,0.0,81,0.00,CLR,SKC,0.00,WeatherDisplay:10.37,2013-04-20 11:13:00,
2013-04-20 06:18:00,30.4,25.6,30.21,East,81,0.0,2.0,82,0.00,CLR,SKC,0.00,WeatherDisplay:10.37,2013-04-20 11:18:00,
2013-04-20 06:23:00,30.4,25.6,30.21,SE,124,0.0,0.0,82,0.00,CLR,SKC,0.00,WeatherDisplay:10.37,2013-04-20 11:23:00,
2013-04-20 06:28:00,30.3,25.2,30.21,SE,124,0.0,0.0,81,0.00,CLR,SKC,0.00,WeatherDisplay:10.37,2013-04-20 11:28:00,
2013-04-20 06:33:00,30.1,25.3,30.21,SE,124,0.0,0.0,82,0.00,CLR,SKC,0.00,WeatherDisplay:10.37,2013-04-20 11:33:00,
2013-04-20 06:38:00,30.6,25.8,30.21,SE,124,0.0,0.0,82,0.00,CLR,SKC,0.00,WeatherDisplay:10.37,2013-04-20 11:38:00,
2013-04-20 06:43:00,31.2,25.8,30.21,SE,124,0.0,0.0,80,0.00,CLR,SKC,0.00,WeatherDisplay:10.37,2013-04-20 11:43:00,
2013-04-20 06:48:00,31.2,25.5,30.22,SE,124,0.0,0.0,79,0.00,CLR,SKC,0.00,WeatherDisplay:10.37,2013-04-20 11:48:00,
2013-04-20 06:53:00,31.2,25.4,30.22,SE,124,0.0,2.0,79,0.00,CLR,SKC,0.00,WeatherDisplay:10.37,2013-04-20 11:53:00,
2013-04-20 06:58:00,31.8,25.7,30.22,SE,124,0.0,1.0,78,0.00,CLR,SKC,0.00,WeatherDisplay:10.37,2013-04-20 11:58:00,
2013-04-20 07:03:00,32.1,26.0,30.22,SE,125,0.0,2.0,78,0.00,CLR,SKC,0.00,WeatherDisplay:10.37,2013-04-20 12:03:00,
2013-04-20 07:08:00,32.7,26.6,30.22,SE,126,0.0,0.0,78,0.00,CLR,SKC,0.00,WeatherDisplay:10.37,2013-04-20 12:08:00,
2013-04-20 07:13:00,33.1,27.0,30.22,SE,130,0.0,2.0,78,0.00,CLR,SKC,0.00,WeatherDisplay:10.37,2013-04-20 12:13:00,
2013-04-20 07:18:00,33.5,27.4,30.22,SE,142,0.0,2.0,78,0.00,CLR,SKC,0.00,WeatherDisplay:10.37,2013-04-20 12:18:00,
2013-04-20 07:28:00,34.6,28.4,30.22,SE,141,0.0,2.0,78,0.00,CLR,SKC,0.00,WeatherDisplay:10.37,2013-04-20 12:28:00,
2013-04-20 07:33:00,35.5,29.0,30.23,SE,139,0.0,2.0,77,0.00,CLR,SKC,0.00,WeatherDisplay:10.37,2013-04-20 12:33:00,
2013-04-20 07:38:00,36.7,29.2,30.23,SE,139,0.0,2.0,74,0.00,CLR,SKC,0.00,WeatherDisplay:10.37,2013-04-20 12:38:00,
2013-04-20 07:43:00,37.5,28.6,30.23,SE,134,0.0,3.0,70,0.00,CLR,SKC,0.00,WeatherDisplay:10.37,2013-04-20 12:43:00,
2013-04-20 07:48:00,38.1,28.5,30.23,ESE,120,0.0,2.0,68,0.00,CLR,SKC,0.00,WeatherDisplay:10.37,2013-04-20 12:48:00,
2013-04-20 07:53:00,38.1,28.1,30.23,East,86,1.0,5.0,67,0.00,CLR,SKC,0.00,WeatherDisplay:10.37,2013-04-20 12:53:00,
2013-04-20 08:03:00,37.9,27.6,30.23,ESE,104,1.0,3.0,66,0.00,CLR,SKC,0.00,WeatherDisplay:10.37,2013-04-20 13:03:00,
2013-04-20 08:08:00,37.9,27.2,30.23,East,98,3.0,8.0,65,0.00,CLR,SKC,0.00,WeatherDisplay:10.37,2013-04-20 13:08:00,
2013-04-20 08:13:00,38.2,27.5,30.23,ESE,109,1.0,7.0,65,0.00,CLR,SKC,0.00,WeatherDisplay:10.37,2013-04-20 13:13:00,
2013-04-20 08:18:00,38.6,27.5,30.23,East,101,2.0,8.0,64,0.00,CLR,SKC,0.00,WeatherDisplay:10.37,2013-04-20 13:18:00,
2013-04-20 08:23:00,38.8,27.3,30.23,ESE,121,2.0,7.0,63,0.00,CLR,SKC,0.00,WeatherDisplay:10.37,2013-04-20 13:23:00,
2013-04-20 08:28:00,39.1,26.8,30.23,SE,124,3.0,12.0,61,0.00,CLR,SKC,0.00,WeatherDisplay:10.37,2013-04-20 13:28:00,
2013-04-20 08:33:00,39.8,27.0,30.23,SE,136,3.0,10.0,60,0.00,CLR,SKC,0.00,WeatherDisplay:10.37,2013-04-20 13:33:00,
2013-04-20 08:38:00,40.2,27.0,30.24,SE,124,6.0,10.0,59,0.00,CLR,SKC,0.00,WeatherDisplay:10.37,2013-04-20 13:38:00,
2013-04-20 08:43:00,40.6,27.4,30.24,SE,124,2.0,12.0,59,0.00,CLR,SKC,0.00,WeatherDisplay:10.37,2013-04-20 13:43:00,
2013-04-20 08:48:00,41.1,27.4,30.25,SSE,158,7.0,12.0,58,0.00,CLR,SKC,0.00,WeatherDisplay:10.37,2013-04-20 13:48:00,
2013-04-20 08:53:00,41.4,27.7,30.25,SE,135,2.0,12.0,58,0.00,CLR,SKC,0.00,WeatherDisplay:10.37,2013-04-20 13:53:00,
2013-04-20 08:58:00,41.9,27.3,30.25,ESE,106,5.0,10.0,56,0.00,CLR,SKC,0.00,WeatherDisplay:10.37,2013-04-20 13:58:00,
2013-04-20 09:03:00,42.1,27.5,30.24,East,99,6.0,8.0,56,0.00,CLR,SKC,0.00,WeatherDisplay:10.37,2013-04-20 14:03:00,
2013-04-20 09:08:00,42.7,27.6,30.25,East,94,6.0,10.0,55,0.00,CLR,SKC,0.00,WeatherDisplay:10.37,2013-04-20 14:08:00,
2013-04-20 09:13:00,42.9,27.3,30.25,ENE,75,6.0,9.0,54,0.00,CLR,SKC,0.00,WeatherDisplay:10.37,2013-04-20 14:13:00,
2013-04-20 09:18:00,43.2,28.1,30.24,East,79,2.0,8.0,55,0.00,CLR,SKC,0.00,WeatherDisplay:10.37,2013-04-20 14:18:00,
2013-04-20 09:23:00,43.5,27.5,30.25,ESE,114,5.0,12.0,53,0.00,CLR,SKC,0.00,WeatherDisplay:10.37,2013-04-20 14:23:00,
2013-04-20 09:28:00,44.0,27.5,30.25,SE,127,5.0,10.0,52,0.00,CLR,SKC,0.00,WeatherDisplay:10.37,2013-04-20 14:28:00,
2013-04-20 09:33:00,44.2,28.1,30.25,SE,130,5.0,10.0,53,0.00,CLR,SKC,0.00,WeatherDisplay:10.37,2013-04-20 14:33:00,
2013-04-20 09:38:00,44.2,27.2,30.25,ESE,111,6.0,12.0,51,0.00,CLR,SKC,0.00,WeatherDisplay:10.37,2013-04-20 14:38:00,
2013-04-20 09:43:00,44.3,27.8,30.25,East,88,3.0,12.0,52,0.00,CLR,SKC,0.00,WeatherDisplay:10.37,2013-04-20 14:43:00,
2013-04-20 09:48:00,44.8,27.8,30.25,ESE,112,2.0,7.0,51,0.00,CLR,SKC,0.00,WeatherDisplay:10.37,2013-04-20 14:48:00,
2013-04-20 09:53:00,45.2,28.6,30.25,ESE,116,1.0,11.0,52,0.00,CLR,SKC,0.00,WeatherDisplay:10.37,2013-04-20 14:53:00,
2013-04-20 09:58:00,45.5,28.4,30.26,ESE,103,2.0,10.0,51,0.00,CLR,SKC,0.00,WeatherDisplay:10.37,2013-04-20 14:58:00,
2013-04-20 10:03:00,45.3,27.8,30.26,SE,143,5.0,10.0,50,0.00,CLR,SKC,0.00,WeatherDisplay:10.37,2013-04-20 15:03:00,
2013-04-20 10:08:00,45.9,28.7,30.26,SE,130,2.0,8.0,51,0.00,CLR,SKC,0.00,WeatherDisplay:10.37,2013-04-20 15:08:00,
2013-04-20 10:13:00,45.5,27.5,30.26,East,81,6.0,8.0,49,0.00,CLR,SKC,0.00,WeatherDisplay:10.37,2013-04-20 15:13:00,
2013-04-20 10:18:00,45.9,28.8,30.26,ENE,78,2.0,10.0,51,0.00,CLR,SKC,0.00,WeatherDisplay:10.37,2013-04-20 15:18:00,
2013-04-20 10:28:00,45.9,27.8,30.26,ENE,61,7.0,10.0,49,0.00,CLR,SKC,0.00,WeatherDisplay:10.37,2013-04-20 15:28:00,
2013-04-20 10:38:00,46.2,28.1,30.27,ESE,113,3.0,12.0,49,0.00,CLR,SKC,0.00,WeatherDisplay:10.37,2013-04-20 15:38:00,
2013-04-20 10:43:00,46.3,28.2,30.27,ENE,76,2.0,9.0,49,0.00,CLR,SKC,0.00,WeatherDisplay:10.37,2013-04-20 15:43:00,
2013-04-20 10:48:00,46.4,27.8,30.27,SE,128,5.0,8.0,48,0.00,CLR,SKC,0.00,WeatherDisplay:10.37,2013-04-20 15:48:00,
2013-04-20 10:53:00,46.6,28.4,30.27,SE,138,5.0,13.0,49,0.00,CLR,SKC,0.00,WeatherDisplay:10.37,2013-04-20 15:53:00,
2013-04-20 10:58:00,46.7,28.0,30.27,SE,136,2.0,12.0,48,0.00,CLR,SKC,0.00,WeatherDisplay:10.37,2013-04-20 15:58:00,
2013-04-20 11:03:00,46.8,27.6,30.26,SE,142,7.0,13.0,47,0.00,CLR,SKC,0.00,WeatherDisplay:10.37,2013-04-20 16:03:00,
2013-04-20 11:08:00,46.7,28.0,30.26,SE,128,2.0,10.0,48,0.00,CLR,SKC,0.00,WeatherDisplay:10.37,2013-04-20 16:08:00,
2013-04-20 11:18:00,47.8,30.1,30.26,ESE,103,2.0,11.0,50,0.00,CLR,SKC,0.00,WeatherDisplay:10.37,2013-04-20 16:18:00,
2013-04-20 11:23:00,47.8,28.5,30.26,ENE,76,5.0,10.0,47,0.00,CLR,SKC,0.00,WeatherDisplay:10.37,2013-04-20 16:23:00,
2013-04-20 11:28:00,47.6,28.4,30.26,East,100,3.0,10.0,47,0.00,CLR,SKC,0.00,WeatherDisplay:10.37,2013-04-20 16:28:00,
2013-04-20 11:33:00,48.1,29.3,30.26,ESE,102,7.0,13.0,48,0.00,CLR,SKC,0.00,WeatherDisplay:10.37,2013-04-20 16:33:00,
2013-04-20 11:38:00,48.1,28.8,30.26,ENE,58,3.0,12.0,47,0.00,CLR,SKC,0.00,WeatherDisplay:10.37,2013-04-20 16:38:00,
2013-04-20 11:43:00,48.3,29.0,30.26,SE,130,10.0,16.0,47,0.00,CLR,SKC,0.00,WeatherDisplay:10.37,2013-04-20 16:43:00,
2013-04-20 11:48:00,48.2,28.9,30.26,SSE,154,7.0,13.0,47,0.00,CLR,SKC,0.00,WeatherDisplay:10.37,2013-04-20 16:48:00,
2013-04-20 11:58:00,48.5,29.7,30.26,SSE,156,1.0,15.0,48,0.00,CLR,SKC,0.00,WeatherDisplay:10.37,2013-04-20 16:58:00,
2013-04-20 12:03:00,49.1,28.7,30.26,SSE,167,8.0,13.0,45,0.00,CLR,SKC,0.00,WeatherDisplay:10.37,2013-04-20 17:03:00,
2013-04-20 12:08:00,48.9,29.0,30.25,SE,140,8.0,13.0,46,0.00,CLR,SKC,0.00,WeatherDisplay:10.37,2013-04-20 17:08:00,
2013-04-20 12:13:00,49.2,29.3,30.25,SE,143,8.0,15.0,46,0.00,CLR,SKC,0.00,WeatherDisplay:10.37,2013-04-20 17:13:00,
2013-04-20 12:18:00,49.9,30.4,30.25,SSE,151,7.0,12.0,47,0.00,CLR,SKC,0.00,WeatherDisplay:10.37,2013-04-20 17:18:00,
2013-04-20 12:28:00,50.5,31.0,30.25,SE,133,7.0,12.0,47,0.00,CLR,SKC,0.00,WeatherDisplay:10.37,2013-04-20 17:28:00,
2013-04-20 12:33:00,50.6,30.1,30.24,SE,128,14.0,21.0,45,0.00,CLR,SKC,0.00,WeatherDisplay:10.37,2013-04-20 17:33:00,
2013-04-20 12:38:00,50.1,29.1,30.24,ESE,121,7.0,15.0,44,0.00,CLR,SKC,0.00,WeatherDisplay:10.37,2013-04-20 17:38:00,
2013-04-20 12:48:00,50.9,30.8,30.23,SE,133,6.0,12.0,46,0.00,CLR,SKC,0.00,WeatherDisplay:10.37,2013-04-20 17:48:00,
2013-04-20 12:53:00,51.7,31.0,30.23,ESE,110,10.0,13.0,45,0.00,CLR,SKC,0.00,WeatherDisplay:10.37,2013-04-20 17:53:00,
2013-04-20 12:58:00,52.0,32.4,30.23,East,93,3.0,13.0,47,0.00,CLR,SKC,0.00,WeatherDisplay:10.37,2013-04-20 17:58:00,
2013-04-20 13:03:00,52.8,32.0,30.22,East,91,7.0,16.0,45,0.00,CLR,SKC,0.00,WeatherDisplay:10.37,2013-04-20 18:03:00,
2013-04-20 13:08:00,53.5,34.3,30.22,SSE,157,2.0,13.0,48,0.00,CLR,SKC,0.00,WeatherDisplay:10.37,2013-04-20 18:08:00,
2013-04-20 13:13:00,53.6,32.8,30.22,SSE,157,3.0,15.0,45,0.00,CLR,SKC,0.00,WeatherDisplay:10.37,2013-04-20 18:13:00,
2013-04-20 13:18:00,53.1,30.6,30.22,SE,146,13.0,21.0,42,0.00,CLR,SKC,0.00,WeatherDisplay:10.37,2013-04-20 18:18:00,
2013-04-20 13:28:00,53.7,32.3,30.21,SSE,148,2.0,10.0,44,0.00,CLR,SKC,0.00,WeatherDisplay:10.37,2013-04-20 18:28:00,
2013-04-20 13:33:00,54.5,32.4,30.21,SE,134,6.0,16.0,43,0.00,CLR,SKC,0.00,WeatherDisplay:10.37,2013-04-20 18:33:00,
2013-04-20 13:38:00,54.6,31.9,30.21,East,93,5.0,14.0,42,0.00,CLR,SKC,0.00,WeatherDisplay:10.37,2013-04-20 18:38:00,
2013-04-20 13:48:00,54.3,31.7,30.21,ESE,104,10.0,18.0,42,0.00,CLR,SKC,0.00,WeatherDisplay:10.37,2013-04-20 18:48:00,
2013-04-20 13:53:00,54.1,32.1,30.21,ESE,114,5.0,17.0,43,0.00,CLR,SKC,0.00,WeatherDisplay:10.37,2013-04-20 18:53:00,
2013-04-20 13:58:00,54.5,31.9,30.20,SE,127,10.0,15.0,42,0.00,CLR,SKC,0.00,WeatherDisplay:10.37,2013-04-20 18:58:00,
2013-04-20 14:03:00,54.2,30.9,30.21,SE,146,8.0,15.0,41,0.00,CLR,SKC,0.00,WeatherDisplay:10.37,2013-04-20 19:03:00,
2013-04-20 14:08:00,54.2,32.1,30.21,SE,134,7.0,15.0,43,0.00,CLR,SKC,0.00,WeatherDisplay:10.37,2013-04-20 19:08:00,
2013-04-20 14:13:00,54.3,32.9,30.20,SE,125,9.0,18.0,44,0.00,CLR,SKC,0.00,WeatherDisplay:10.37,2013-04-20 19:13:00,
2013-04-20 14:18:00,55.1,33.0,30.20,ESE,116,8.0,16.0,43,0.00,CLR,SKC,0.00,WeatherDisplay:10.37,2013-04-20 19:18:00,
2013-04-20 14:23:00,55.2,32.5,30.20,SSE,148,12.0,21.0,42,0.00,CLR,SKC,0.00,WeatherDisplay:10.37,2013-04-20 19:23:00,
2013-04-20 14:28:00,55.6,34.0,30.20,SE,130,5.0,21.0,44,0.00,CLR,SKC,0.00,WeatherDisplay:10.37,2013-04-20 19:28:00,
2013-04-20 14:38:00,56.6,33.8,30.20,SE,141,3.0,7.0,42,0.00,CLR,SKC,0.00,WeatherDisplay:10.37,2013-04-20 19:38:00,
2013-04-20 14:43:00,57.1,34.8,30.19,ESE,111,3.0,8.0,43,0.00,CLR,SKC,0.00,WeatherDisplay:10.37,2013-04-20 19:43:00,
2013-04-20 14:48:00,56.6,33.7,30.19,ESE,119,10.0,18.0,42,0.00,CLR,SKC,0.00,WeatherDisplay:10.37,2013-04-20 19:48:00,
2013-04-20 14:58:00,56.4,34.2,30.19,SE,141,7.0,16.0,43,0.00,CLR,SKC,0.00,WeatherDisplay:10.37,2013-04-20 19:58:00,
2013-04-20 15:03:00,56.8,34.5,30.19,SE,146,8.0,20.0,43,0.00,CLR,SKC,0.00,WeatherDisplay:10.37,2013-04-20 20:03:00,
2013-04-20 15:08:00,56.7,34.4,30.19,SE,145,6.0,16.0,43,0.00,CLR,SKC,0.00,WeatherDisplay:10.37,2013-04-20 20:08:00,
2013-04-20 15:13:00,57.0,34.2,30.18,ESE,116,5.0,18.0,42,0.00,CLR,SKC,0.00,WeatherDisplay:10.37,2013-04-20 20:13:00,
2013-04-20 15:18:00,57.1,34.2,30.18,SE,127,5.0,15.0,42,0.00,CLR,SKC,0.00,WeatherDisplay:10.37,2013-04-20 20:18:00,
2013-04-20 15:23:00,57.5,35.1,30.18,SE,132,3.0,15.0,43,0.00,CLR,SKC,0.00,WeatherDisplay:10.37,2013-04-20 20:23:00,
2013-04-20 15:28:00,57.9,34.9,30.18,ESE,107,6.0,12.0,42,0.00,CLR,SKC,0.00,WeatherDisplay:10.37,2013-04-20 20:28:00,
2013-04-20 15:33:00,57.4,33.8,30.17,ESE,123,5.0,20.0,41,0.00,CLR,SKC,0.00,WeatherDisplay:10.37,2013-04-20 20:33:00,
2013-04-20 15:38:00,57.4,34.5,30.17,SE,128,6.0,18.0,42,0.00,CLR,SKC,0.00,WeatherDisplay:10.37,2013-04-20 20:38:00,
2013-04-20 15:48:00,57.8,34.8,30.17,SE,146,8.0,24.0,42,0.00,CLR,SKC,0.00,WeatherDisplay:10.37,2013-04-20 20:48:00,
2013-04-20 15:53:00,57.6,34.0,30.16,SE,130,12.0,20.0,41,0.00,CLR,SKC,0.00,WeatherDisplay:10.37,2013-04-20 20:53:00,
2013-04-20 15:58:00,57.9,34.9,30.16,ESE,105,5.0,15.0,42,0.00,CLR,SKC,0.00,WeatherDisplay:10.37,2013-04-20 20:58:00,
2013-04-20 16:03:00,57.8,34.2,30.16,ESE,114,8.0,21.0,41,0.00,CLR,SKC,0.00,WeatherDisplay:10.37,2013-04-20 21:03:00,
2013-04-20 16:08:00,58.1,35.1,30.16,SE,134,7.0,16.0,42,0.00,CLR,SKC,0.00,WeatherDisplay:10.37,2013-04-20 21:08:00,
2013-04-20 16:13:00,58.1,33.9,30.16,ESE,109,6.0,13.0,40,0.00,CLR,SKC,0.00,WeatherDisplay:10.37,2013-04-20 21:13:00,
2013-04-20 16:18:00,57.7,34.2,30.16,SE,141,9.0,18.0,41,0.00,CLR,SKC,0.00,WeatherDisplay:10.37,2013-04-20 21:18:00,
2013-04-20 16:23:00,58.1,35.1,30.16,SE,144,9.0,21.0,42,0.00,CLR,SKC,0.00,WeatherDisplay:10.37,2013-04-20 21:23:00,
2013-04-20 16:28:00,57.9,34.9,30.16,ESE,116,10.0,21.0,42,0.00,CLR,SKC,0.00,WeatherDisplay:10.37,2013-04-20 21:28:00,
2013-04-20 16:38:00,58.2,35.8,30.16,SE,126,7.0,16.0,43,0.00,CLR,SKC,0.00,WeatherDisplay:10.37,2013-04-20 21:38:00,
2013-04-20 16:43:00,58.2,35.8,30.15,ESE,120,6.0,16.0,43,0.00,CLR,SKC,0.00,WeatherDisplay:10.37,2013-04-20 21:43:00,
2013-04-20 16:48:00,57.9,35.5,30.15,SE,128,2.0,18.0,43,0.00,CLR,SKC,0.00,WeatherDisplay:10.37,2013-04-20 21:48:00,
2013-04-20 16:53:00,57.9,36.1,30.15,ESE,119,5.0,15.0,44,0.00,CLR,SKC,0.00,WeatherDisplay:10.37,2013-04-20 21:53:00,
2013-04-20 16:58:00,57.6,35.3,30.15,SSE,150,7.0,16.0,43,0.00,CLR,SKC,0.00,WeatherDisplay:10.37,2013-04-20 21:58:00,
2013-04-20 17:03:00,57.3,36.1,30.15,SSE,159,12.0,16.0,45,0.00,CLR,SKC,0.00,WeatherDisplay:10.37,2013-04-20 22:03:00,
2013-04-20 17:08:00,57.5,36.9,30.15,SSE,147,7.0,16.0,46,0.00,CLR,SKC,0.00,WeatherDisplay:10.37,2013-04-20 22:08:00,
2013-04-20 17:18:00,57.1,35.9,30.15,East,100,6.0,15.0,45,0.00,CLR,SKC,0.00,WeatherDisplay:10.37,2013-04-20 22:18:00,
2013-04-20 17:23:00,57.2,36.6,30.15,ESE,112,5.0,16.0,46,0.00,CLR,SKC,0.00,WeatherDisplay:10.37,2013-04-20 22:23:00,
2013-04-20 17:28:00,57.1,35.9,30.15,SE,134,13.0,21.0,45,0.00,CLR,SKC,0.00,WeatherDisplay:10.37,2013-04-20 22:28:00,
2013-04-20 17:33:00,56.8,36.8,30.15,SE,125,7.0,16.0,47,0.00,CLR,SKC,0.00,WeatherDisplay:10.37,2013-04-20 22:33:00,
2013-04-20 17:38:00,56.7,36.7,30.15,ESE,109,5.0,18.0,47,0.00,CLR,SKC,0.00,WeatherDisplay:10.37,2013-04-20 22:38:00,
2013-04-20 17:43:00,56.8,36.7,30.15,ESE,117,12.0,20.0,47,0.00,CLR,SKC,0.00,WeatherDisplay:10.37,2013-04-20 22:43:00,
2013-04-20 17:48:00,56.6,36.1,30.15,SE,144,7.0,21.0,46,0.00,CLR,SKC,0.00,WeatherDisplay:10.37,2013-04-20 22:48:00,
2013-04-20 17:58:00,56.4,36.4,30.15,SSE,149,8.0,18.0,47,0.00,CLR,SKC,0.00,WeatherDisplay:10.37,2013-04-20 22:58:00,
2013-04-20 18:03:00,56.4,36.4,30.15,SE,131,6.0,16.0,47,0.00,CLR,SKC,0.00,WeatherDisplay:10.37,2013-04-20 23:03:00,
2013-04-20 18:08:00,56.4,36.4,30.15,SE,142,3.0,8.0,47,0.00,CLR,SKC,0.00,WeatherDisplay:10.37,2013-04-20 23:08:00,
2013-04-20 18:18:00,56.4,35.9,30.15,East,92,10.0,18.0,46,0.00,CLR,SKC,0.00,WeatherDisplay:10.37,2013-04-20 23:18:00,
2013-04-20 18:23:00,56.2,36.2,30.15,ESE,122,6.0,18.0,47,0.00,CLR,SKC,0.00,WeatherDisplay:10.37,2013-04-20 23:23:00,
2013-04-20 18:28:00,56.1,36.7,30.15,SSE,148,6.0,21.0,48,0.00,CLR,SKC,0.00,WeatherDisplay:10.37,2013-04-20 23:28:00,
2013-04-20 18:33:00,56.0,36.6,30.15,SSE,149,7.0,19.0,48,0.00,CLR,SKC,0.00,WeatherDisplay:10.37,2013-04-20 23:33:00,
2013-04-20 18:38:00,55.9,36.0,30.15,SE,134,10.0,16.0,47,0.00,CLR,SKC,0.00,WeatherDisplay:10.37,2013-04-20 23:38:00,
2013-04-20 18:43:00,55.9,36.5,30.15,SE,131,3.0,22.0,48,0.00,CLR,SKC,0.00,WeatherDisplay:10.37,2013-04-20 23:43:00,
2013-04-20 18:48:00,55.8,36.9,30.15,ESE,115,3.0,10.0,49,0.00,CLR,SKC,0.00,WeatherDisplay:10.37,2013-04-20 23:48:00,
2013-04-20 18:53:00,55.8,36.9,30.15,East,86,2.0,9.0,49,0.00,CLR,SKC,0.00,WeatherDisplay:10.37,2013-04-20 23:53:00,
2013-04-20 18:58:00,55.8,36.9,30.15,SE,127,5.0,11.0,49,0.00,CLR,SKC,0.00,WeatherDisplay:10.37,2013-04-20 23:58:00,
2013-04-20 19:03:00,55.6,36.7,30.15,ESE,122,7.0,13.0,49,0.00,CLR,SKC,0.00,WeatherDisplay:10.37,2013-04-21 00:03:00,
2013-04-20 19:08:00,55.5,37.2,30.15,SE,129,5.0,11.0,50,0.00,CLR,SKC,0.00,WeatherDisplay:10.37,2013-04-21 00:08:00,
2013-04-20 19:13:00,55.4,36.6,30.15,SE,139,7.0,16.0,49,0.00,CLR,SKC,0.00,WeatherDisplay:10.37,2013-04-21 00:13:00,
2013-04-20 19:18:00,55.4,36.6,30.15,SE,133,6.0,16.0,49,0.00,CLR,SKC,0.00,WeatherDisplay:10.37,2013-04-21 00:18:00,
2013-04-20 19:23:00,55.3,37.0,30.15,ESE,121,5.0,8.0,50,0.00,CLR,SKC,0.00,WeatherDisplay:10.37,2013-04-21 00:23:00,
2013-04-20 19:28:00,55.2,36.9,30.15,ESE,107,5.0,12.0,50,0.00,CLR,SKC,0.00,WeatherDisplay:10.37,2013-04-21 00:28:00,
2013-04-20 19:33:00,55.1,36.8,30.15,East,99,6.0,12.0,50,0.00,CLR,SKC,0.00,WeatherDisplay:10.37,2013-04-21 00:33:00,
2013-04-20 19:38:00,55.0,36.7,30.15,ESE,105,2.0,6.0,50,0.00,CLR,SKC,0.00,WeatherDisplay:10.37,2013-04-21 00:38:00,
2013-04-20 19:43:00,54.9,36.6,30.16,SE,125,3.0,13.0,50,0.00,CLR,SKC,0.00,WeatherDisplay:10.37,2013-04-21 00:43:00,
2013-04-20 19:48:00,54.8,36.5,30.16,SE,128,3.0,12.0,50,0.00,CLR,SKC,0.00,WeatherDisplay:10.37,2013-04-21 00:48:00,
2013-04-20 19:53:00,54.7,36.9,30.16,SE,129,1.0,8.0,51,0.00,CLR,SKC,0.00,WeatherDisplay:10.37,2013-04-21 00:53:00,
2013-04-20 20:03:00,54.6,36.3,30.16,ESE,122,2.0,10.0,50,0.00,CLR,SKC,0.00,WeatherDisplay:10.37,2013-04-21 01:03:00,
2013-04-20 20:08:00,54.5,36.8,30.16,ESE,112,1.0,6.0,51,0.00,CLR,SKC,0.00,WeatherDisplay:10.37,2013-04-21 01:08:00,
2013-04-20 20:18:00,54.3,36.6,30.16,ESE,120,3.0,8.0,51,0.00,CLR,SKC,0.00,WeatherDisplay:10.37,2013-04-21 01:18:00,
2013-04-20 20:23:00,54.1,36.4,30.16,SSE,152,2.0,8.0,51,0.00,CLR,SKC,0.00,WeatherDisplay:10.37,2013-04-21 01:23:00,
2013-04-20 20:28:00,54.0,36.7,30.17,SE,137,2.0,5.0,52,0.00,CLR,SKC,0.00,WeatherDisplay:10.37,2013-04-21 01:28:00,
2013-04-20 20:33:00,53.8,36.1,30.17,SSE,149,7.0,13.0,51,0.00,CLR,SKC,0.00,WeatherDisplay:10.37,2013-04-21 01:33:00,
2013-04-20 20:38:00,53.7,36.5,30.17,ESE,118,3.0,15.0,52,0.00,CLR,SKC,0.00,WeatherDisplay:10.37,2013-04-21 01:38:00,
2013-04-20 20:43:00,53.6,35.9,30.16,East,98,8.0,13.0,51,0.00,CLR,SKC,0.00,WeatherDisplay:10.37,2013-04-21 01:43:00,
2013-04-20 20:48:00,53.5,35.8,30.17,ESE,118,7.0,13.0,51,0.00,CLR,SKC,0.00,WeatherDisplay:10.37,2013-04-21 01:48:00,
2013-04-20 20:58:00,53.4,35.8,30.18,SE,136,6.0,13.0,51,0.00,CLR,SKC,0.00,WeatherDisplay:10.37,2013-04-21 01:58:00,
2013-04-20 21:08:00,53.2,35.5,30.18,SE,129,7.0,12.0,51,0.00,CLR,SKC,0.00,WeatherDisplay:10.37,2013-04-21 02:08:00,
2013-04-20 21:13:00,53.1,35.5,30.18,SE,130,5.0,15.0,51,0.00,CLR,SKC,0.00,WeatherDisplay:10.37,2013-04-21 02:13:00,
2013-04-20 21:18:00,53.0,35.4,30.18,SE,131,8.0,16.0,51,0.00,CLR,SKC,0.00,WeatherDisplay:10.37,2013-04-21 02:18:00,
2013-04-20 21:23:00,52.9,35.3,30.18,ESE,118,5.0,15.0,51,0.00,CLR,SKC,0.00,WeatherDisplay:10.37,2013-04-21 02:23:00,
2013-04-20 21:28:00,52.9,35.3,30.18,SE,126,8.0,16.0,51,0.00,CLR,SKC,0.00,WeatherDisplay:10.37,2013-04-21 02:28:00,
2013-04-20 21:33:00,52.8,35.2,30.18,East,101,9.0,15.0,51,0.00,CLR,SKC,0.00,WeatherDisplay:10.37,2013-04-21 02:33:00,
2013-04-20 21:43:00,52.7,35.1,30.17,ESE,120,6.0,16.0,51,0.00,CLR,SKC,0.00,WeatherDisplay:10.37,2013-04-21 02:43:00,
2013-04-20 21:48:00,52.7,35.1,30.18,SE,139,10.0,16.0,51,0.00,CLR,SKC,0.00,WeatherDisplay:10.37,2013-04-21 02:48:00,
2013-04-20 21:53:00,52.6,35.0,30.18,SE,131,5.0,8.0,51,0.00,CLR,SKC,0.00,WeatherDisplay:10.37,2013-04-21 02:53:00,
2013-04-20 21:58:00,52.5,34.9,30.18,ESE,121,8.0,13.0,51,0.00,CLR,SKC,0.00,WeatherDisplay:10.37,2013-04-21 02:58:00,
2013-04-20 22:03:00,52.5,34.9,30.18,ESE,123,3.0,14.0,51,0.00,CLR,SKC,0.00,WeatherDisplay:10.37,2013-04-21 03:03:00,
2013-04-20 22:08:00,52.5,34.9,30.19,ESE,121,5.0,10.0,51,0.00,CLR,SKC,0.00,WeatherDisplay:10.37,2013-04-21 03:08:00,
2013-04-20 22:18:00,52.4,34.8,30.19,SE,127,9.0,18.0,51,0.00,CLR,SKC,0.00,WeatherDisplay:10.37,2013-04-21 03:18:00,
2013-04-20 22:23:00,52.3,34.7,30.19,SE,133,10.0,18.0,51,0.00,CLR,SKC,0.00,WeatherDisplay:10.37,2013-04-21 03:23:00,
2013-04-20 22:28:00,52.2,35.0,30.19,SE,134,3.0,15.0,52,0.00,CLR,SKC,0.00,WeatherDisplay:10.37,2013-04-21 03:28:00,
2013-04-20 22:38:00,51.9,34.8,30.19,SE,125,10.0,16.0,52,0.00,CLR,SKC,0.00,WeatherDisplay:10.37,2013-04-21 03:38:00,
2013-04-20 22:43:00,51.9,34.8,30.19,ESE,112,8.0,21.0,52,0.00,CLR,SKC,0.00,WeatherDisplay:10.37,2013-04-21 03:43:00,
2013-04-20 22:48:00,51.8,34.7,30.19,SE,134,6.0,13.0,52,0.00,CLR,SKC,0.00,WeatherDisplay:10.37,2013-04-21 03:48:00,
2013-04-20 22:53:00,51.8,34.7,30.19,SSE,159,7.0,16.0,52,0.00,CLR,SKC,0.00,WeatherDisplay:10.37,2013-04-21 03:53:00,
2013-04-20 23:03:00,51.7,35.1,30.19,SE,127,6.0,16.0,53,0.00,CLR,SKC,0.00,WeatherDisplay:10.37,2013-04-21 04:03:00,
2013-04-20 23:08:00,51.6,35.0,30.19,SE,129,8.0,18.0,53,0.00,CLR,SKC,0.00,WeatherDisplay:10.37,2013-04-21 04:08:00,
2013-04-20 23:13:00,51.6,35.0,30.19,SE,134,7.0,16.0,53,0.00,CLR,SKC,0.00,WeatherDisplay:10.37,2013-04-21 04:13:00,
2013-04-20 23:18:00,51.6,35.0,30.19,ESE,121,5.0,13.0,53,0.00,CLR,SKC,0.00,WeatherDisplay:10.37,2013-04-21 04:18:00,
2013-04-20 23:23:00,51.5,35.3,30.18,SE,126,8.0,12.0,54,0.00,CLR,SKC,0.00,WeatherDisplay:10.37,2013-04-21 04:23:00,
2013-04-20 23:28:00,51.3,35.2,30.18,ESE,115,6.0,13.0,54,0.00,CLR,SKC,0.00,WeatherDisplay:10.37,2013-04-21 04:28:00,
2013-04-20 23:38:00,51.2,35.1,30.18,SE,124,6.0,12.0,54,0.00,CLR,SKC,0.00,WeatherDisplay:10.37,2013-04-21 04:38:00,
2013-04-20 23:43:00,51.1,35.5,30.18,ESE,118,3.0,16.0,55,0.00,CLR,SKC,0.00,WeatherDisplay:10.37,2013-04-21 04:43:00,
2013-04-20 23:48:00,51.1,35.5,30.18,SE,128,2.0,16.0,55,0.00,CLR,SKC,0.00,WeatherDisplay:10.37,2013-04-21 04:48:00,
2013-04-20 23:58:00,51.0,35.4,30.18,ESE,106,8.0,12.0,55,0.00,CLR,SKC,0.00,WeatherDisplay:10.37,2013-04-21 04:58:00,